| time (UTC) | temp C | wind direction | speed KPH | gust KPH | rain 1hr cm | rain 24hr cm | rain mn cm | humidity % | barometer mb |
| 20260902131017 | 23 | 358 | 0.0 | 1.6 | 0.00 | 0.00 | 0.00 | 88 | 1019.1 |
| 20260902130017 | 22 | 313 | 0.0 | 1.6 | 0.00 | 0.00 | 0.00 | 89 | 1019.1 |
| 20260902125017 | 22 | 322 | 0.0 | 1.6 | 0.00 | 0.00 | 0.00 | 89 | 1019.1 |
| 20260902124038 | 22 | 327 | 0.0 | 1.6 | 0.00 | 0.00 | 0.00 | 90 | 1019.1 |
| 20260902123018 | 22 | 2 | 0.0 | 1.6 | 0.00 | 0.00 | 0.00 | 90 | 1019.0 |
| 20260902122018 | 21 | 335 | 0.0 | 0.0 | 0.00 | 0.00 | 0.00 | 90 | 1018.9 |
| 20260902121018 | 21 | 43 | 0.0 | 1.6 | 0.00 | 0.00 | 0.00 | 90 | 1018.8 |
| 20260902120018 | 21 | 55 | 0.0 | 1.6 | 0.00 | 0.00 | 0.00 | 90 | 1018.7 |
| 20260902115018 | 21 | 123 | 0.0 | 1.6 | 0.00 | 0.00 | 0.00 | 90 | 1018.5 |
| 20260902114018 | 21 | 82 | 0.0 | 1.6 | 0.00 | 0.00 | 0.00 | 90 | 1018.5 |
| 20260902113018 | 21 | 322 | 0.0 | 1.6 | 0.00 | 0.00 | 0.00 | 90 | 1018.4 |
| 20260902112019 | 21 | 304 | 0.0 | 1.6 | 0.00 | 0.00 | 0.00 | 90 | 1018.3 |
| 20260902111019 | 21 | 59 | 0.0 | 1.6 | 0.00 | 0.00 | 0.00 | 90 | 1018.3 |
| 20260902110019 | 21 | 28 | 1.6 | 3.2 | 0.00 | 0.00 | 0.00 | 90 | 1018.2 |
| 20260902105019 | 21 | 102 | 0.0 | 1.6 | 0.00 | 0.00 | 0.00 | 90 | 1018.1 |
| 20260902104039 | 21 | 100 | 0.0 | 1.6 | 0.00 | 0.00 | 0.00 | 90 | 1018.1 |
| 20260902103019 | 21 | 105 | 0.0 | 1.6 | 0.00 | 0.00 | 0.00 | 89 | 1018.0 |
| 20260902102040 | 21 | 46 | 0.0 | 1.6 | 0.00 | 0.00 | 0.00 | 89 | 1017.9 |
| 20260902101020 | 21 | 79 | 0.0 | 1.6 | 0.00 | 0.00 | 0.00 | 89 | 1017.8 |
| 20260902100021 | 21 | 32 | 0.0 | 0.0 | 0.00 | 0.00 | 0.00 | 89 | 1017.7 |
| 20260902095020 | 21 | 56 | 0.0 | 1.6 | 0.00 | 0.00 | 0.00 | 89 | 1017.6 |
| 20260902094020 | 21 | 60 | 0.0 | 1.6 | 0.00 | 0.00 | 0.00 | 89 | 1017.5 |
| 20260902093021 | 21 | 93 | 0.0 | 1.6 | 0.00 | 0.00 | 0.00 | 89 | 1017.4 |
| 20260902092021 | 21 | 313 | 0.0 | 1.6 | 0.00 | 0.00 | 0.00 | 89 | 1017.4 |
| 20260902091021 | 21 | 326 | 0.0 | 1.6 | 0.00 | 0.00 | 0.00 | 89 | 1017.3 |
| 20260902090021 | 21 | 332 | 0.0 | 0.0 | 0.00 | 0.00 | 0.00 | 88 | 1017.2 |
| 20260902085021 | 22 | 92 | 0.0 | 1.6 | 0.00 | 0.00 | 0.00 | 88 | 1017.2 |
| 20260902084021 | 22 | 18 | 0.0 | 1.6 | 0.00 | 0.00 | 0.00 | 88 | 1017.1 |
| 20260902083021 | 22 | 114 | 0.0 | 1.6 | 0.00 | 0.00 | 0.00 | 88 | 1017.1 |
| 20260902082021 | 22 | 360 | 0.0 | 1.6 | 0.00 | 0.00 | 0.00 | 88 | 1017.0 |
| 20260902081022 | 22 | 107 | 0.0 | 0.0 | 0.00 | 0.00 | 0.00 | 88 | 1017.0 |
| 20260902080022 | 22 | 114 | 0.0 | 1.6 | 0.00 | 0.00 | 0.00 | 88 | 1016.9 |
| 20260902075022 | 22 | 111 | 0.0 | 1.6 | 0.00 | 0.00 | 0.00 | 88 | 1016.9 |
| 20260902074022 | 22 | 0.0 | 0.0 | 0.00 | 0.00 | 0.00 | 87 | 1016.9 | |
| 20260902073022 | 22 | 352 | 0.0 | 0.0 | 0.00 | 0.00 | 0.00 | 87 | 1017.0 |
| 20260902072023 | 22 | 40 | 0.0 | 1.6 | 0.00 | 0.00 | 0.00 | 87 | 1017.0 |
| 20260902071023 | 22 | 85 | 0.0 | 1.6 | 0.00 | 0.00 | 0.00 | 87 | 1017.0 |
| 20260902070023 | 22 | 225 | 0.0 | 1.6 | 0.00 | 0.00 | 0.00 | 87 | 1017.0 |
| 20260902065023 | 22 | 107 | 0.0 | 0.0 | 0.00 | 0.00 | 0.00 | 87 | 1016.9 |
| 20260902064023 | 23 | 32 | 0.0 | 0.0 | 0.00 | 0.00 | 0.00 | 86 | 1017.0 |
| 20260902063024 | 23 | 338 | 0.0 | 0.0 | 0.00 | 0.00 | 0.00 | 86 | 1017.0 |
| 20260902062024 | 23 | 190 | 0.0 | 1.6 | 0.00 | 0.00 | 0.00 | 86 | 1017.0 |
| 20260902061043 | 23 | 98 | 0.0 | 1.6 | 0.00 | 0.00 | 0.00 | 86 | 1017.1 |
| 20260902060024 | 23 | 37 | 0.0 | 1.6 | 0.00 | 0.00 | 0.00 | 86 | 1017.1 |
| 20260902055024 | 23 | 26 | 0.0 | 1.6 | 0.00 | 0.00 | 0.00 | 86 | 1017.1 |
| 20260902054024 | 23 | 0.0 | 0.0 | 0.00 | 0.00 | 0.00 | 85 | 1017.1 | |
| 20260902053024 | 23 | 24 | 0.0 | 1.6 | 0.00 | 0.00 | 0.00 | 85 | 1017.1 |
| 20260902052045 | 23 | 99 | 0.0 | 1.6 | 0.00 | 0.00 | 0.00 | 85 | 1017.0 |
| 20260902051024 | 23 | 352 | 0.0 | 0.0 | 0.00 | 0.00 | 0.00 | 85 | 1017.0 |
| 20260902050045 | 23 | 0.0 | 0.0 | 0.00 | 0.00 | 0.00 | 84 | 1017.1 | |
| 20260902045025 | 23 | 1 | 0.0 | 0.0 | 0.00 | 0.00 | 0.00 | 84 | 1017.1 |
| 20260902044025 | 23 | 86 | 0.0 | 1.6 | 0.00 | 0.00 | 0.00 | 83 | 1017.1 |
| 20260902043025 | 23 | 95 | 0.0 | 1.6 | 0.00 | 0.00 | 0.00 | 83 | 1017.2 |
| 20260902042025 | 24 | 113 | 0.0 | 0.0 | 0.00 | 0.00 | 0.00 | 82 | 1017.2 |
| 20260902041025 | 24 | 314 | 0.0 | 1.6 | 0.00 | 0.00 | 0.00 | 82 | 1017.3 |
| 20260902040026 | 24 | 48 | 0.0 | 1.6 | 0.00 | 0.00 | 0.00 | 82 | 1017.2 |
| 20260902035026 | 24 | 0.0 | 0.0 | 0.00 | 0.00 | 0.00 | 82 | 1017.2 | |
| 20260902034026 | 24 | 356 | 0.0 | 0.0 | 0.00 | 0.00 | 0.00 | 82 | 1017.2 |
| 20260902033026 | 25 | 46 | 0.0 | 0.0 | 0.00 | 0.00 | 0.00 | 81 | 1017.3 |
| 20260902032026 | 25 | 347 | 0.0 | 1.6 | 0.00 | 0.00 | 0.00 | 81 | 1017.3 |
| 20260902031027 | 25 | 357 | 0.0 | 0.0 | 0.00 | 0.00 | 0.00 | 81 | 1017.4 |
| 20260902030027 | 25 | 37 | 0.0 | 0.0 | 0.00 | 0.00 | 0.00 | 81 | 1017.4 |
| 20260902025027 | 25 | 51 | 0.0 | 1.6 | 0.00 | 0.00 | 0.00 | 80 | 1017.5 |
| 20260902024027 | 25 | 6 | 0.0 | 0.0 | 0.00 | 0.00 | 0.00 | 79 | 1017.5 |
| 20260902023047 | 25 | 81 | 0.0 | 1.6 | 0.00 | 0.00 | 0.00 | 79 | 1017.4 |
| 20260902022019 | 25 | 75 | 0.0 | 1.6 | 0.00 | 0.00 | 0.00 | 78 | 1017.3 |
| 20260902021019 | 26 | 43 | 0.0 | 1.6 | 0.00 | 0.00 | 0.00 | 77 | 1017.3 |
| 20260902020016 | 26 | 62 | 0.0 | 1.6 | 0.00 | 0.00 | 0.00 | 77 | 1017.2 |
| 20260902015039 | 26 | 108 | 0.0 | 1.6 | 0.00 | 0.00 | 0.00 | 77 | 1017.2 |
| 20260902014020 | 26 | 6 | 0.0 | 1.6 | 0.00 | 0.00 | 0.00 | 76 | 1017.1 |
| 20260902013019 | 26 | 324 | 0.0 | 1.6 | 0.00 | 0.00 | 0.00 | 75 | 1017.0 |
| 20260902012019 | 27 | 36 | 0.0 | 0.0 | 0.00 | 0.00 | 0.00 | 74 | 1016.9 |
| 20260902011017 | 27 | 78 | 0.0 | 1.6 | 0.00 | 0.00 | 0.00 | 73 | 1016.8 |
| 20260902010017 | 27 | 52 | 0.0 | 1.6 | 0.00 | 0.00 | 0.00 | 73 | 1016.7 |
| 20260902005017 | 28 | 43 | 0.0 | 1.6 | 0.00 | 0.00 | 0.00 | 72 | 1016.7 |
| 20260902004038 | 28 | 55 | 0.0 | 3.2 | 0.00 | 0.00 | 0.00 | 72 | 1016.7 |
| 20260902003037 | 29 | 98 | 0.0 | 1.6 | 0.00 | 0.00 | 0.00 | 68 | 1016.6 |
| 20260902002017 | 30 | 66 | 0.0 | 1.6 | 0.00 | 0.00 | 0.00 | 67 | 1016.6 |
| 20260902001038 | 32 | 64 | 0.0 | 3.2 | 0.00 | 0.00 | 0.00 | 62 | 1016.6 |
| 20260902000038 | 33 | 99 | 1.6 | 3.2 | 0.00 | 0.00 | 0.00 | 56 | 1016.6 |
| 20260901235038 | 35 | 83 | 1.6 | 3.2 | 0.00 | 0.00 | 0.00 | 49 | 1016.7 |
| 20260901234019 | 35 | 68 | 1.6 | 3.2 | 0.00 | 0.00 | 0.00 | 46 | 1016.7 |
| 20260901233016 | 35 | 55 | 1.6 | 3.2 | 0.00 | 0.00 | 0.00 | 44 | 1016.8 |
| 20260901232019 | 34 | 55 | 1.6 | 3.2 | 0.00 | 0.00 | 0.00 | 45 | 1016.8 |
| 20260901231039 | 35 | 51 | 1.6 | 3.2 | 0.00 | 0.00 | 0.00 | 43 | 1016.7 |
| 20260901230019 | 35 | 134 | 1.6 | 3.2 | 0.00 | 0.00 | 0.00 | 42 | 1016.7 |
| 20260901225019 | 36 | 56 | 1.6 | 4.8 | 0.00 | 0.00 | 0.00 | 40 | 1016.7 |
| 20260901224017 | 37 | 62 | 1.6 | 3.2 | 0.00 | 0.00 | 0.00 | 39 | 1016.6 |
| 20260901223017 | 38 | 137 | 1.6 | 9.7 | 0.00 | 0.00 | 0.00 | 38 | 1016.7 |
| 20260901222017 | 39 | 68 | 3.2 | 8.0 | 0.00 | 0.00 | 0.00 | 38 | 1016.6 |
| 20260901221020 | 38 | 59 | 3.2 | 6.4 | 0.00 | 0.00 | 0.00 | 39 | 1016.7 |
| 20260901220017 | 39 | 67 | 3.2 | 8.0 | 0.00 | 0.00 | 0.00 | 37 | 1016.7 |
| 20260901215038 | 38 | 98 | 3.2 | 6.4 | 0.00 | 0.00 | 0.00 | 38 | 1016.6 |
| 20260901214017 | 38 | 51 | 3.2 | 8.0 | 0.00 | 0.00 | 0.00 | 39 | 1016.7 |
| 20260901213018 | 37 | 66 | 3.2 | 6.4 | 0.00 | 0.00 | 0.00 | 40 | 1016.8 |
| 20260901212018 | 37 | 38 | 3.2 | 6.4 | 0.00 | 0.00 | 0.00 | 40 | 1016.8 |
| 20260901211018 | 37 | 31 | 3.2 | 6.4 | 0.00 | 0.00 | 0.00 | 41 | 1016.9 |
| 20260901210018 | 36 | 88 | 3.2 | 8.0 | 0.00 | 0.00 | 0.00 | 42 | 1016.9 |
| 20260901205018 | 38 | 64 | 3.2 | 9.7 | 0.00 | 0.00 | 0.00 | 40 | 1017.0 |
| 20260901204018 | 37 | 63 | 4.8 | 9.7 | 0.00 | 0.00 | 0.00 | 41 | 1017.1 |
| 20260901203019 | 37 | 98 | 3.2 | 6.4 | 0.00 | 0.00 | 0.00 | 41 | 1017.1 |
| 20260901202019 | 36 | 70 | 3.2 | 8.0 | 0.00 | 0.00 | 0.00 | 42 | 1017.2 |
| 20260901201019 | 36 | 66 | 3.2 | 8.0 | 0.00 | 0.00 | 0.00 | 42 | 1017.3 |
| 20260901200016 | 37 | 38 | 3.2 | 6.4 | 0.00 | 0.00 | 0.00 | 41 | 1017.3 |
| 20260901195016 | 36 | 66 | 3.2 | 6.4 | 0.00 | 0.00 | 0.00 | 42 | 1017.4 |
| 20260901194119 | 35 | 71 | 3.2 | 6.4 | 0.00 | 0.00 | 0.00 | 43 | 1017.5 |
| 20260901193020 | 35 | 252 | 3.2 | 9.7 | 0.00 | 0.00 | 0.00 | 44 | 1017.6 |
| 20260901192019 | 35 | 143 | 3.2 | 6.4 | 0.00 | 0.00 | 0.00 | 44 | 1017.8 |
| 20260901191020 | 35 | 103 | 3.2 | 8.0 | 0.00 | 0.00 | 0.00 | 45 | 1018.0 |
| 20260901190017 | 35 | 220 | 3.2 | 8.0 | 0.00 | 0.00 | 0.00 | 44 | 1018.1 |
| 20260901185017 | 35 | 108 | 3.2 | 8.0 | 0.00 | 0.00 | 0.00 | 44 | 1018.1 |
| 20260901184017 | 35 | 255 | 4.8 | 11.3 | 0.00 | 0.00 | 0.00 | 45 | 1018.1 |
| 20260901183040 | 35 | 60 | 3.2 | 8.0 | 0.00 | 0.00 | 0.00 | 46 | 1018.3 |
| 20260901182038 | 35 | 85 | 3.2 | 8.0 | 0.00 | 0.00 | 0.00 | 46 | 1018.4 |
| 20260901181017 | 34 | 77 | 3.2 | 9.7 | 0.00 | 0.00 | 0.00 | 47 | 1018.4 |
| 20260901180018 | 34 | 157 | 3.2 | 6.4 | 0.00 | 0.00 | 0.00 | 47 | 1018.6 |
| 20260901175018 | 33 | 310 | 3.2 | 11.3 | 0.00 | 0.00 | 0.00 | 47 | 1018.7 |
| 20260901174038 | 32 | 182 | 3.2 | 6.4 | 0.00 | 0.00 | 0.00 | 50 | 1018.8 |
| 20260901173058 | 32 | 339 | 3.2 | 8.0 | 0.00 | 0.00 | 0.00 | 50 | 1018.9 |
| 20260901172018 | 33 | 49 | 1.6 | 9.7 | 0.00 | 0.00 | 0.00 | 50 | 1019.0 |
| 20260901171018 | 33 | 181 | 3.2 | 6.4 | 0.00 | 0.00 | 0.00 | 50 | 1019.1 |
| 20260901170039 | 33 | 31 | 3.2 | 6.4 | 0.00 | 0.00 | 0.00 | 50 | 1019.3 |
| 20260901165019 | 33 | 192 | 3.2 | 6.4 | 0.00 | 0.00 | 0.00 | 49 | 1019.3 |
| 20260901164019 | 32 | 99 | 1.6 | 4.8 | 0.00 | 0.00 | 0.00 | 52 | 1019.5 |
| 20260901163022 | 32 | 265 | 3.2 | 4.8 | 0.00 | 0.00 | 0.00 | 51 | 1019.5 |
| 20260901162022 | 32 | 100 | 1.6 | 4.8 | 0.00 | 0.00 | 0.00 | 53 | 1019.6 |
| 20260901161022 | 32 | 238 | 3.2 | 4.8 | 0.00 | 0.00 | 0.00 | 54 | 1019.7 |
| 20260901160023 | 31 | 204 | 3.2 | 4.8 | 0.00 | 0.00 | 0.00 | 55 | 1019.7 |
| 20260901155023 | 31 | 316 | 3.2 | 4.8 | 0.00 | 0.00 | 0.00 | 55 | 1019.8 |
| 20260901154023 | 31 | 222 | 1.6 | 3.2 | 0.00 | 0.00 | 0.00 | 57 | 1019.8 |
| 20260901153023 | 31 | 324 | 1.6 | 6.4 | 0.00 | 0.00 | 0.00 | 57 | 1019.7 |
| 20260901152023 | 30 | 249 | 1.6 | 4.8 | 0.00 | 0.00 | 0.00 | 59 | 1019.7 |
| 20260901151023 | 30 | 261 | 1.6 | 4.8 | 0.00 | 0.00 | 0.00 | 60 | 1019.7 |
| 20260901150024 | 30 | 236 | 1.6 | 4.8 | 0.00 | 0.00 | 0.00 | 62 | 1019.7 |
| 20260901145023 | 29 | 66 | 1.6 | 4.8 | 0.00 | 0.00 | 0.00 | 63 | 1019.7 |
| 20260901144024 | 29 | 130 | 0.0 | 3.2 | 0.00 | 0.00 | 0.00 | 64 | 1019.7 |
| 20260901143024 | 28 | 302 | 1.6 | 3.2 | 0.00 | 0.00 | 0.00 | 66 | 1019.7 |
| 20260901142024 | 28 | 261 | 1.6 | 4.8 | 0.00 | 0.00 | 0.00 | 68 | 1019.8 |
| 20260901141024 | 27 | 109 | 1.6 | 4.8 | 0.00 | 0.00 | 0.00 | 71 | 1019.7 |
| 20260901140024 | 27 | 182 | 1.6 | 3.2 | 0.00 | 0.00 | 0.00 | 73 | 1019.7 |
| 20260901135044 | 26 | 107 | 0.0 | 1.6 | 0.00 | 0.00 | 0.00 | 75 | 1019.7 |
| 20260901134045 | 26 | 309 | 0.0 | 1.6 | 0.00 | 0.00 | 0.00 | 76 | 1019.7 |
| 20260901133044 | 25 | 72 | 1.6 | 3.2 | 0.00 | 0.00 | 0.00 | 79 | 1019.8 |
| 20260901132025 | 25 | 220 | 1.6 | 3.2 | 0.00 | 0.00 | 0.00 | 79 | 1019.7 |